Rivolto Air Base LIPI

Flugplatz Daten

Name: Rivolto Air Base

Ident: LIPI

Lat: 45,97869873

Long: 13,04930019

Platzhöhe: 179 ft

IataCode:

City: Codroipo

Metar

2021/12/03 23:55
LIPI 032355Z 35007KT CAVOK 00/M03 Q1015 RMK SKC VIS MIN 9999 WIND THR06 03007KT WIND THR24 02006KT BLU

Taf

2017/11/16 12:24
TAF TAF LIPI 161100Z 1612/1624 08013KT CAVOK
BECMG 1616/1618 VRB05KT 9999 FEW040 SCT090
Gewünschte Webcam nicht vorhanden? Dann fügen Sie eine hinzu. Sie wird dann so schnell wie möglich freigeschaltet
Url: Title: